Wilmington, NC

1:06 PM EDT on July 28, 2017 (GMT -0400)
Wilmington International

Weather History for KILM - June, 2014

Change the Weather History Date:

Saturday, June 28, 2014

  Actual Average Record
Temperature  
Mean Temperature 78 °F 80 °F  
Max Temperature 83 °F 89 °F 100 °F (1978)
Min Temperature 72 °F 71 °F 56 °F (1988)
Degree Days  
Heating Degree Days 0 0  
Month to date heating degree days 0 0  
Since 1 June heating degree days 0 0  
Since 1 July heating degree days 2432 2409  
Cooling Degree Days 13 15  
Month to date cooling degree days 416 355  
Year to date cooling degree days 823 636  
Since 1 June cooling degree days 416 355  
Growing Degree Days 28 (Base 50)    
Moisture  
Dew Point 72 °F    
Average Humidity 84    
Maximum Humidity 93    
Minimum Humidity 74    
Precipitation  
Precipitation 0.68 in 0.18 in 2.62 in (1892)
Month to date precipitation 2.48 4.78  
Year to date precipitation 21.72 23.68  
Sea Level Pressure  
Sea Level Pressure 30.12 in    
Wind  
Wind Speed 8 mph (NE)    
Max Wind Speed 21 mph    
Max Gust Speed 26 mph    
Visibility 8 miles    
Events Rain , Thunderstorm    
T = Trace of Precipitation, MM = Missing Value Source: NWS Daily Summary

Daily Weather History Graph

Daily Weather History Graph

Search for Another Location

Airport or City:

Trip Planner

Search our weather history database for the weather conditions in past years. The results will help you decide how hot, cold, wet, or windy it might be!

Date:

Astronomy

Jun. 28, 2014 Rise Set
Actual Time 6:02 AM EDT 8:27 PM EDT
Civil Twilight 5:32 AM EDT 8:56 PM EDT
Nautical Twilight 4:56 AM EDT 9:32 PM EDT
Astronomical Twilight 4:17 AM EDT 10:12 PM EDT
Moon 7:18 AM EDT 9:17 PM EDT
Length of Visible Light 15h 24m
Length of Day
14h 25m
New Moon, 2% of the Moon is Illuminated
Jun 28
New Moon
Jul 5
First Quarter
Jul 12
Full
Jul 18
Last Quarter
Jul 26
New

Hourly Weather History & Observations

Time (EDT) Temp. Heat Index Dew Point Humidity Pressure Visibility Wind Dir Wind Speed Gust Speed Precip Events Conditions
12:53 AM 73.9 °F - 72.0 °F 93% 30.08 in 9.0 mi NNE 8.1 mph - N/A   Partly Cloudy
1:53 AM 73.9 °F - 72.0 °F 93% 30.07 in 9.0 mi NNE 5.8 mph - N/A   Clear
2:22 AM 73.0 °F - 71.1 °F 93% 30.06 in 7.0 mi NE 5.8 mph - N/A   Partly Cloudy
2:53 AM 73.0 °F - 71.1 °F 93% 30.07 in 8.0 mi NE 4.6 mph - N/A   Scattered Clouds
3:53 AM 73.0 °F - 71.1 °F 93% 30.06 in 8.0 mi NE 4.6 mph - N/A   Partly Cloudy
4:53 AM 73.0 °F - 71.1 °F 93% 30.07 in 9.0 mi NE 8.1 mph - N/A   Scattered Clouds
4:56 AM 73.0 °F - 71.1 °F 93% 30.07 in 9.0 mi NE 8.1 mph - N/A   Mostly Cloudy
5:16 AM 73.0 °F - 72.0 °F 96% 30.07 in 8.0 mi NNE 6.9 mph - N/A   Overcast
5:53 AM 73.0 °F - 71.1 °F 93% 30.07 in 8.0 mi NE 5.8 mph - N/A   Mostly Cloudy
6:04 AM 73.0 °F - 71.1 °F 93% 30.07 in 8.0 mi NE 4.6 mph - N/A   Scattered Clouds
6:24 AM 73.0 °F - 72.0 °F 96% 30.08 in 8.0 mi NNE 6.9 mph - N/A   Mostly Cloudy
6:53 AM 73.9 °F - 72.0 °F 93% 30.08 in 7.0 mi NNE 6.9 mph - N/A   Overcast
7:21 AM 73.9 °F - 72.0 °F 93% 30.09 in 10.0 mi NNE 9.2 mph - N/A   Mostly Cloudy
7:33 AM 75.0 °F - 72.0 °F 90% 30.10 in 10.0 mi North 6.9 mph - N/A   Mostly Cloudy
7:53 AM 75.0 °F - 72.0 °F 90% 30.10 in 10.0 mi NNE 9.2 mph - N/A   Mostly Cloudy
8:24 AM 75.9 °F - 72.0 °F 87% 30.11 in 10.0 mi NNE 11.5 mph - N/A   Scattered Clouds
8:53 AM 78.1 °F - 73.0 °F 84% 30.12 in 10.0 mi NNE 9.2 mph - N/A   Clear
9:14 AM 79.0 °F - 73.9 °F 84% 30.12 in 10.0 mi NE 9.2 mph - N/A   Partly Cloudy
9:37 AM 79.0 °F - 73.0 °F 82% 30.12 in 10.0 mi ENE 9.2 mph - N/A   Mostly Cloudy
9:53 AM 79.0 °F - 73.9 °F 84% 30.12 in 10.0 mi NE 6.9 mph - N/A   Overcast
10:05 AM 78.1 °F - 73.9 °F 87% 30.12 in 1.8 mi East 3.5 mph - 0.02 in Rain Heavy Rain
10:15 AM 79.0 °F - 73.9 °F 84% 30.12 in 3.0 mi East 4.6 mph - 0.16 in Rain Light Rain
10:25 AM 80.6 °F 86.2 °F 75.2 °F 84% 30.12 in 10.0 mi ENE 3.5 mph - N/A   Overcast
10:53 AM 82.0 °F 87.9 °F 73.9 °F 76% 30.12 in 10.0 mi NE 10.4 mph - 0.16 in   Mostly Cloudy
11:31 AM 77.0 °F - 73.9 °F 90% 30.15 in 1.8 mi NE 18.4 mph - 0.04 in Rain Heavy Rain
11:36 AM 75.9 °F - 73.0 °F 91% 30.15 in 1.2 mi NE 20.7 mph 26.5 mph 0.07 in Rain , Thunderstorm Heavy Thunderstorms and Rain
11:47 AM 75.2 °F - 73.4 °F 94% 30.14 in 0.8 mi NNE 11.5 mph - 0.23 in Rain , Thunderstorm Heavy Rain
11:53 AM 75.9 °F - 73.0 °F 91% 30.14 in 1.2 mi NE 12.7 mph - 0.30 in Rain , Thunderstorm Heavy Rain
11:58 AM 75.9 °F - 73.9 °F 94% 30.14 in 2.0 mi ENE 8.1 mph - 0.03 in Rain , Thunderstorm Rain
12:01 PM 75.9 °F - 73.0 °F 91% 30.14 in 3.0 mi East 8.1 mph - 0.04 in Rain , Thunderstorm Light Thunderstorms and Rain
12:20 PM 77.0 °F - 73.0 °F 88% 30.15 in 8.0 mi East 4.6 mph - 0.06 in Rain , Thunderstorm Light Rain
12:53 PM 77.0 °F - 73.9 °F 90% 30.17 in 3.0 mi North 5.8 mph - 0.19 in Rain , Thunderstorm Light Thunderstorms and Rain
1:04 PM 77.0 °F - 75.0 °F 94% 30.16 in 7.0 mi NNE 8.1 mph - 0.00 in Rain , Thunderstorm Light Thunderstorms and Rain
1:12 PM 77.0 °F - 73.9 °F 90% 30.15 in 4.0 mi ESE 4.6 mph - 0.01 in Rain Rain
1:53 PM 79.0 °F - 73.9 °F 84% 30.15 in 10.0 mi ENE 3.5 mph - 0.03 in   Mostly Cloudy
2:53 PM 79.0 °F - 75.0 °F 88% 30.14 in 10.0 mi NNE 8.1 mph - 0.00 in   Overcast
3:53 PM 81.0 °F 86.7 °F 75.0 °F 82% 30.15 in 10.0 mi East 6.9 mph - 0.00 in   Mostly Cloudy
4:48 PM 78.8 °F - 71.6 °F 78% 30.16 in 10.0 mi NE 16.1 mph - N/A   Overcast
4:53 PM 77.0 °F - 72.0 °F 84% 30.16 in 10.0 mi NE 16.1 mph - N/A   Mostly Cloudy
5:31 PM 75.9 °F - 72.0 °F 87% 30.16 in 8.0 mi NNE 10.4 mph - 0.00 in Rain Light Rain
5:53 PM 75.9 °F - 72.0 °F 87% 30.15 in 10.0 mi NE 10.4 mph - 0.00 in   Overcast
6:53 PM 77.0 °F - 73.0 °F 88% 30.14 in 10.0 mi NE 8.1 mph - 0.00 in   Overcast
7:35 PM 78.1 °F - 72.0 °F 81% 30.15 in 10.0 mi ENE 15.0 mph - N/A   Mostly Cloudy
7:50 PM 77.0 °F - 71.6 °F 83% 30.16 in 10.0 mi NE 10.4 mph - N/A   Mostly Cloudy
7:53 PM 77.0 °F - 71.1 °F 82% 30.16 in 10.0 mi ENE 9.2 mph - N/A   Mostly Cloudy
8:53 PM 75.0 °F - 72.0 °F 90% 30.15 in 10.0 mi NE 8.1 mph - N/A   Overcast
9:03 PM 75.0 °F - 72.0 °F 90% 30.15 in 10.0 mi NE 10.4 mph - N/A   Overcast
9:53 PM 75.0 °F - 71.1 °F 87% 30.15 in 10.0 mi NE 10.4 mph - N/A   Overcast
10:36 PM 75.0 °F - 70.0 °F 84% 30.16 in 10.0 mi NE 10.4 mph - N/A   Scattered Clouds
10:53 PM 73.9 °F - 70.0 °F 87% 30.16 in 10.0 mi NE 11.5 mph - N/A   Partly Cloudy
11:53 PM 73.0 °F - 68.0 °F 84% 30.17 in 10.0 mi NE 9.2 mph - N/A   Partly Cloudy